TimeCST,TemperatureF,Dew PointF,Humidity,Sea Level PressureIn,VisibilityMPH,Wind Direction,Wind SpeedMPH,Gust SpeedMPH,PrecipitationIn,Events,Conditions,WindDirDegrees,DateUTC
12:15 AM,30.2,10.4,44,29.91,10.0,NW,4.6,-,N/A,,Clear,320,2012-12-23 06:15:00
12:35 AM,32.0,10.4,41,29.91,10.0,Calm,Calm,-,N/A,,Partly Cloudy,0,2012-12-23 06:35:00
12:55 AM,32.0,12.2,44,29.90,10.0,Calm,Calm,-,N/A,,Partly Cloudy,0,2012-12-23 06:55:00
1:15 AM,28.4,12.2,51,29.89,10.0,Calm,Calm,-,N/A,,Clear,0,2012-12-23 07:15:00
1:35 AM,30.2,12.2,47,29.89,10.0,Calm,Calm,-,N/A,,Clear,0,2012-12-23 07:35:00
1:55 AM,28.4,12.2,51,29.89,10.0,Calm,Calm,-,N/A,,Clear,0,2012-12-23 07:55:00
2:15 AM,28.4,12.2,51,29.89,10.0,SE,3.5,-,N/A,,Clear,130,2012-12-23 08:15:00
2:35 AM,28.4,12.2,51,29.88,10.0,Calm,Calm,-,N/A,,Clear,0,2012-12-23 08:35:00
2:55 AM,28.4,12.2,51,29.90,10.0,NW,8.1,-,N/A,,Clear,320,2012-12-23 08:55:00
3:15 AM,26.6,12.2,55,29.89,10.0,NNW,8.1,-,N/A,,Clear,330,2012-12-23 09:15:00
3:35 AM,26.6,14.0,59,29.90,10.0,NNW,10.4,-,N/A,,Clear,330,2012-12-23 09:35:00
3:55 AM,28.4,19.4,69,29.90,10.0,NNW,12.7,-,N/A,,Clear,340,2012-12-23 09:55:00
4:15 AM,30.2,21.2,69,29.90,10.0,NNW,13.8,-,N/A,,Clear,340,2012-12-23 10:15:00
4:35 AM,28.4,23.0,80,29.89,10.0,North,12.7,-,N/A,,Clear,350,2012-12-23 10:35:00
4:55 AM,28.4,23.0,80,29.89,10.0,North,12.7,-,N/A,,Clear,360,2012-12-23 10:55:00
5:15 AM,28.4,23.0,80,29.89,10.0,North,10.4,-,N/A,,Clear,360,2012-12-23 11:15:00
5:35 AM,28.4,23.0,80,29.88,10.0,North,8.1,-,N/A,,Clear,360,2012-12-23 11:35:00
6:15 AM,26.6,23.0,86,29.89,10.0,NNW,12.7,-,N/A,,Clear,340,2012-12-23 12:15:00
6:35 AM,26.6,23.0,86,29.90,10.0,North,12.7,-,N/A,,Clear,350,2012-12-23 12:35:00
6:55 AM,24.8,23.0,93,29.91,10.0,NNW,12.7,-,N/A,,Clear,340,2012-12-23 12:55:00
7:15 AM,24.8,23.0,93,29.91,10.0,North,11.5,-,N/A,,Clear,350,2012-12-23 13:15:00
7:35 AM,26.6,23.0,86,29.91,9.0,North,15.0,-,N/A,,Clear,360,2012-12-23 13:35:00
7:55 AM,26.6,23.0,86,29.93,9.0,North,15.0,-,N/A,,Clear,350,2012-12-23 13:55:00
8:15 AM,26.6,23.0,86,29.93,9.0,North,16.1,-,N/A,,Clear,350,2012-12-23 14:15:00
8:35 AM,26.6,23.0,86,29.94,9.0,North,16.1,-,N/A,,Clear,350,2012-12-23 14:35:00
8:55 AM,28.4,23.0,80,29.94,9.0,North,17.3,23.0,N/A,,Clear,360,2012-12-23 14:55:00
9:15 AM,28.4,23.0,80,29.95,9.0,North,17.3,-,N/A,,Clear,360,2012-12-23 15:15:00
9:35 AM,28.4,23.0,80,29.94,10.0,North,15.0,-,N/A,,Clear,10,2012-12-23 15:35:00
9:55 AM,32.0,23.0,69,29.94,10.0,North,16.1,-,N/A,,Clear,10,2012-12-23 15:55:00
10:15 AM,32.0,23.0,69,29.95,10.0,North,16.1,-,N/A,,Clear,10,2012-12-23 16:15:00
10:35 AM,32.0,23.0,69,29.95,10.0,North,12.7,-,N/A,,Clear,360,2012-12-23 16:35:00
10:55 AM,35.6,24.8,65,29.94,10.0,North,12.7,-,N/A,,Clear,360,2012-12-23 16:55:00
11:15 AM,35.6,24.8,65,29.93,10.0,North,9.2,-,N/A,,Clear,360,2012-12-23 17:15:00
11:35 AM,37.4,24.8,60,29.93,10.0,North,10.4,-,N/A,,Clear,360,2012-12-23 17:35:00
12:15 PM,39.2,24.8,56,29.90,10.0,North,12.7,-,N/A,,Clear,350,2012-12-23 18:15:00
12:35 PM,39.2,24.8,56,29.90,10.0,NNW,13.8,-,N/A,,Clear,340,2012-12-23 18:35:00
12:55 PM,39.2,24.8,56,29.90,9.0,NNW,13.8,-,N/A,,Clear,330,2012-12-23 18:55:00
1:15 PM,39.2,24.8,56,29.89,8.0,NNW,15.0,18.4,N/A,,Clear,330,2012-12-23 19:15:00
1:35 PM,39.2,24.8,56,29.88,9.0,North,12.7,-,N/A,,Clear,350,2012-12-23 19:35:00
1:55 PM,39.2,24.8,56,29.87,8.0,North,13.8,18.4,N/A,,Clear,10,2012-12-23 19:55:00
2:15 PM,39.2,24.8,56,29.86,9.0,North,15.0,18.4,N/A,,Clear,10,2012-12-23 20:15:00
2:35 PM,39.2,24.8,56,29.86,8.0,North,12.7,-,N/A,,Clear,360,2012-12-23 20:35:00
2:55 PM,39.2,24.8,56,29.87,8.0,NNW,13.8,21.9,N/A,,Clear,340,2012-12-23 20:55:00
3:15 PM,39.2,24.8,56,29.87,9.0,North,15.0,18.4,N/A,,Clear,360,2012-12-23 21:15:00
3:35 PM,39.2,24.8,56,29.87,9.0,North,16.1,-,N/A,,Clear,350,2012-12-23 21:35:00
3:55 PM,37.4,24.8,60,29.88,9.0,NNW,12.7,-,N/A,,Clear,340,2012-12-23 21:55:00
4:15 PM,37.4,24.8,60,29.89,10.0,NNW,10.4,-,N/A,,Clear,330,2012-12-23 22:15:00
4:35 PM,37.4,23.0,56,29.90,9.0,North,12.7,-,N/A,,Clear,350,2012-12-23 22:35:00
4:55 PM,37.4,23.0,56,29.91,9.0,North,10.4,-,N/A,,Clear,350,2012-12-23 22:55:00
5:15 PM,35.6,23.0,60,29.91,9.0,NNW,11.5,-,N/A,,Clear,330,2012-12-23 23:15:00
5:35 PM,32.0,21.2,64,29.91,9.0,North,11.5,-,N/A,,Clear,350,2012-12-23 23:35:00
5:55 PM,32.0,21.2,64,29.92,10.0,North,10.4,-,N/A,,Clear,360,2012-12-23 23:55:00
6:15 PM,32.0,21.2,64,29.92,10.0,North,12.7,-,N/A,,Clear,350,2012-12-24 00:15:00
6:35 PM,30.2,19.4,64,29.94,10.0,NNW,13.8,-,N/A,,Clear,340,2012-12-24 00:35:00
6:55 PM,28.4,19.4,69,29.96,10.0,NNW,15.0,-,N/A,,Clear,330,2012-12-24 00:55:00
7:15 PM,28.4,19.4,69,29.96,10.0,NNW,13.8,-,N/A,,Clear,340,2012-12-24 01:15:00
7:35 PM,28.4,19.4,69,29.96,9.0,NNW,10.4,-,N/A,,Clear,340,2012-12-24 01:35:00
7:55 PM,28.4,21.2,74,29.98,8.0,NNW,10.4,-,N/A,,Clear,340,2012-12-24 01:55:00
8:15 PM,28.4,21.2,74,29.97,8.0,North,10.4,-,N/A,,Clear,350,2012-12-24 02:15:00
8:55 PM,26.6,21.2,80,29.96,8.0,North,8.1,-,N/A,,Clear,360,2012-12-24 02:55:00
9:15 PM,26.6,21.2,80,29.97,7.0,NNW,6.9,-,N/A,,Clear,340,2012-12-24 03:15:00
9:35 PM,24.8,19.4,80,29.97,7.0,NNW,8.1,-,N/A,,Clear,330,2012-12-24 03:35:00
9:55 PM,24.8,19.4,80,29.97,7.0,NNW,8.1,-,N/A,,Clear,330,2012-12-24 03:55:00
10:15 PM,24.8,19.4,80,29.97,7.0,NNW,9.2,-,N/A,,Clear,340,2012-12-24 04:15:00
10:35 PM,26.6,19.4,74,29.97,8.0,North,9.2,-,N/A,,Clear,350,2012-12-24 04:35:00
10:55 PM,24.8,19.4,80,29.98,7.0,NNW,5.8,-,N/A,,Clear,340,2012-12-24 04:55:00
11:15 PM,24.8,19.4,80,30.01,10.0,NNW,12.7,18.4,N/A,,Clear,330,2012-12-24 05:15:00
11:35 PM,24.8,17.6,74,30.01,10.0,NNW,12.7,-,N/A,,Clear,340,2012-12-24 05:35:00
11:55 PM,24.8,17.6,74,29.99,10.0,North,9.2,-,N/A,,Clear,350,2012-12-24 05:55:00